Home > Weather > Ulm > Past weeks

Flag for Germany Weather for the Past 2 Weeks in Ulm, Baden-Württemberg, Germany

Now
52 °F

Passing clouds.


Feels Like: 52 °F
Forecast: 31 / 59 °F
Wind: 2 mph from Northwest

Location: Laupheim Airport

Current Time: Apr 29, 2016 at 2:17:36 PM

Latest Report: Apr 29, 2016 at 1:20 PM


Visibility: N/A

Pressure: 30.04 "Hg

Humidity: 44%

Dew Point: 30 °F

Location of UlmLocation

Historic Weather in Ulm — Graph

°F

Ulm Temperature Yesterday

Maximum temperature yesterday: 45 °F (at 11:20 AM)
Minimum temperature yesterday: 28 °F (at 4:20 AM)
Average temperature yesterday: 38 °F

High & Low Weather Summary for the Past Weeks

 TemperatureHumidityPressure
High64 °F (Apr 21, 3:20 PM)100% (Apr 16, 4:20 AM)30.36 "Hg (Apr 16, 4:20 AM)
Low28 °F (Apr 28, 4:20 AM)37% (Apr 21, 4:20 PM)29.59 "Hg (Apr 26, 7:20 AM)
Average44 °F76%29.94 "Hg
* Reported Apr 14 12:20 PM — Apr 29 12:20 PM, Ulm, Weather by CustomWeather, © 2016

Note: Actual official high and low records may vary slightly from our data, if they occured in-between our weather recording intervals... More about our weather records

Advertising

Ulm Weather History for the Previous 24 Hours

Scroll right to see more
 ConditionsComfort  
Time TempWeatherWind HumidityBarometerVisibility
12:20 PM
Fri, Apr 29
52 °FScattered clouds.3 mph44%30.07 "HgN/A
12:00 PM50 °FPassing clouds.2 mph43%30.07 "HgN/A
11:20 AM50 °FPassing clouds.2 mph62%30.07 "HgN/A
10:20 AM43 °FPassing clouds.3 mph76%30.07 "HgN/A
9:20 AM39 °FScattered clouds.2 mph87%30.07 "Hg6 mi
8:20 AM34 °FFog.1 mph93%30.07 "Hg4 mi
7:20 AM32 °FFog.1 mph93%30.07 "Hg2 mi
6:20 AM28 °FIce fog.No wind93%30.04 "Hg0 mi
5:20 AM30 °FFog.2 mph93%30.04 "Hg5 mi
4:20 AM30 °FFog.2 mph93%30.04 "Hg5 mi
3:20 AM32 °FFog.No wind87%30.04 "Hg6 mi
2:20 AM32 °FPassing clouds.1 mph93%30.04 "HgN/A
1:20 AM32 °FPassing clouds.2 mph93%30.04 "HgN/A
12:20 AM34 °FPassing clouds.2 mph87%30.04 "HgN/A
11:20 PM
Thu, Apr 28
39 °FPassing clouds.2 mph70%30.04 "HgN/A
10:20 PM37 °FPassing clouds.5 mph81%30.04 "HgN/A
9:20 PM41 °FPassing clouds.3 mph76%30.01 "HgN/A
8:20 PM43 °FPassing clouds.2 mph66%30.01 "HgN/A
7:20 PM45 °FScattered clouds.1 mph57%30.01 "HgN/A
6:20 PM45 °FScattered clouds.5 mph61%30.01 "HgN/A
5:20 PM41 °FSnow flurries. Partly sunny.5 mph76%30.01 "HgN/A
4:52 PM41 °FRain showers. Broken clouds.9 mph70%30.01 "Hg4 mi
4:20 PM45 °FScattered showers. Scattered clouds.3 mph53%29.98 "HgN/A
3:20 PM45 °FScattered showers. Scattered clouds.12 mph57%29.98 "HgN/A
2:20 PM39 °FScattered clouds.10 mph81%29.98 "HgN/A
Weather by CustomWeather, © 2016

See weather overviewHow to use our weather pages